Torna al catalogo

ONEWEB-0670

AttivoComunicazioniPO
NORAD 55829·PAYLOAD·🇬🇧 United Kingdom

Lanciato Mar 9, 2023 da Cape Canaveral Space Force Station

Loading…

Prossimi Passaggi (prossime 24 ore)

TLE

AggiornatoSource: CelesTrak SupGP

Epoca: Sep 14, 2026, 16:09 UTC

1 55829C 23029AK  26257.67344167 -.00001187  00000+0 -32050-2 0  2572
2 55829  87.8886 271.8865 0002326  92.2389  10.1987 13.14504654    19

Traccia ONEWEB-0670 in tempo reale con AllMySat

Download on the App Store